• In Uzbekistan
  • List of Countries
  • For 7 days
  • Water Temperature
  • Satellite Maps
  • Weather Map
  • Weather Widgets
  • user-avatar
    Login

    Hourly Weather Tashkent

    Today, 23 February, Saturday

    Time Temperature Precipitation Wind Pressure Humidity
    00:00 +4°C° 0 mm 2 mps 726 mmHg 42%
    01:00 +3°C° 0 mm 2 mps 726 mmHg 40%
    02:00 +3°C° 0 mm 2 mps 726 mmHg 39%
    03:00 +3°C° 0 mm 2 mps 726 mmHg 37%
    04:00 +3°C° 0 mm 2 mps 726 mmHg 35%
    05:00 +3°C° 0 mm 2 mps 726 mmHg 32%
    06:00 +3°C° 0 mm 2 mps 726 mmHg 31%
    07:00 +3°C° 0 mm 2 mps 726 mmHg 30%
    08:00 +3°C° 0 mm 2 mps 726 mmHg 29%
    09:00 +6°C° 0 mm 1 mps 726 mmHg 27%
    10:00 +8°C° 0 mm 1 mps 726 mmHg 25%
    11:00 +9°C° 0 mm 0 mps 726 mmHg 22%
    12:00 +10°C° 0 mm 0 mps 726 mmHg 21%
    13:00 +12°C° 0 mm 1 mps 726 mmHg 20%
    14:00 +13°C° 0 mm 1 mps 726 mmHg 19%
    15:00 +12°C° 0 mm 0 mps 726 mmHg 20%
    16:00 +12°C° 0 mm 0 mps 726 mmHg 22%
    17:00 +11°C° 0 mm 0 mps 725 mmHg 24%
    18:00 +11°C° 0 mm 1 mps 726 mmHg 25%
    19:00 +10°C° 0 mm 1 mps 726 mmHg 27%
    20:00 +8°C° 0 mm 2 mps 726 mmHg 28%
    21:00 +7°C° 0 mm 2 mps 726 mmHg 29%
    22:00 +7°C° 0 mm 3 mps 726 mmHg 30%
    23:00 +5°C° 0 mm 3 mps 726 mmHg 30%

    Tomorrow, 24 February, Sunday

    Time Temperature Precipitation Wind Pressure Humidity
    00:00 +5°C° 0 mm 3 mps 726 mmHg 29%
    01:00 +5°C° 0 mm 3 mps 726 mmHg 29%
    02:00 +4°C° 0 mm 3 mps 725 mmHg 28%
    03:00 +4°C° 0 mm 3 mps 725 mmHg 29%
    04:00 +4°C° 0 mm 3 mps 725 mmHg 29%
    05:00 +4°C° 0 mm 3 mps 725 mmHg 29%
    06:00 +5°C° 0 mm 2 mps 725 mmHg 30%
    07:00 +5°C° 0 mm 2 mps 725 mmHg 31%
    08:00 +5°C° 0 mm 2 mps 726 mmHg 32%
    09:00 +7°C° 0 mm 2 mps 726 mmHg 29%
    10:00 +9°C° 0 mm 2 mps 726 mmHg 25%
    11:00 +11°C° 0 mm 1 mps 726 mmHg 22%
    12:00 +12°C° 0 mm 2 mps 726 mmHg 21%
    13:00 +13°C° 0 mm 2 mps 726 mmHg 20%
    14:00 +14°C° 0 mm 2 mps 725 mmHg 19%
    15:00 +14°C° 0 mm 2 mps 725 mmHg 21%
    16:00 +14°C° 0 mm 2 mps 725 mmHg 22%
    17:00 +13°C° 0 mm 2 mps 725 mmHg 24%
    18:00 +12°C° 0 mm 2 mps 726 mmHg 28%
    19:00 +10°C° 0 mm 2 mps 726 mmHg 32%
    20:00 +8°C° 0 mm 2 mps 726 mmHg 36%
    21:00 +8°C° 0 mm 2 mps 726 mmHg 37%
    22:00 +7°C° 0 mm 2 mps 726 mmHg 38%
    23:00 +7°C° 0 mm 3 mps 726 mmHg 39%

    Day after tomorrow, 25 February, Monday

    Time Temperature Precipitation Wind Pressure Humidity
    00:00 +7°C° 0 mm 3 mps 726 mmHg 40%
    01:00 +5°C° 0 mm 3 mps 725 mmHg 41%
    02:00 +5°C° 0 mm 3 mps 725 mmHg 42%
    03:00 +5°C° 0 mm 3 mps 725 mmHg 44%
    04:00 +4°C° 0 mm 3 mps 725 mmHg 45%
    05:00 +5°C° 0 mm 2 mps 725 mmHg 47%
    06:00 +5°C° 0 mm 2 mps 725 mmHg 48%
    07:00 +5°C° 0 mm 2 mps 725 mmHg 48%
    08:00 +5°C° 0 mm 2 mps 726 mmHg 49%
    09:00 +7°C° 0 mm 3 mps 726 mmHg 45%
    10:00 +8°C° 0 mm 3 mps 726 mmHg 40%
    11:00 +10°C° 0 mm 3 mps 726 mmHg 36%
    12:00 +11°C° 0 mm 3 mps 725 mmHg 34%
    13:00 +12°C° 0 mm 2 mps 725 mmHg 33%
    14:00 +13°C° 0 mm 2 mps 724 mmHg 32%
    15:00 +13°C° 0 mm 2 mps 724 mmHg 32%
    16:00 +13°C° 0 mm 2 mps 724 mmHg 33%
    17:00 +12°C° 0 mm 1 mps 724 mmHg 33%
    18:00 +11°C° 0 mm 1 mps 724 mmHg 37%
    19:00 +10°C° 0 mm 1 mps 724 mmHg 40%
    20:00 +9°C° 0 mm 1 mps 724 mmHg 43%
    21:00 +8°C° 0 mm 2 mps 724 mmHg 44%
    22:00 +7°C° 0 mm 2 mps 724 mmHg 44%
    23:00 +7°C° 0 mm 3 mps 724 mmHg 45%

    26 February, Tuesday

    Time Temperature Precipitation Wind Pressure Humidity
    00:00 +5°C° 0 mm 3 mps 724 mmHg 44%
    01:00 +5°C° 0 mm 3 mps 724 mmHg 44%
    02:00 +5°C° 0 mm 3 mps 723 mmHg 43%
    03:00 +4°C° 0 mm 3 mps 723 mmHg 42%
    04:00 +4°C° 0 mm 3 mps 723 mmHg 42%
    05:00 +4°C° 0 mm 3 mps 723 mmHg 41%
    06:00 +4°C° 0 mm 3 mps 723 mmHg 40%
    07:00 +4°C° 0 mm 3 mps 723 mmHg 40%
    08:00 +4°C° 0 mm 3 mps 723 mmHg 39%
    09:00 +7°C° 0 mm 3 mps 723 mmHg 36%
    10:00 +8°C° 0 mm 4 mps 723 mmHg 33%
    11:00 +10°C° 0 mm 4 mps 723 mmHg 30%
    12:00 +11°C° 0 mm 4 mps 723 mmHg 29%
    13:00 +12°C° 0 mm 4 mps 723 mmHg 29%
    14:00 +12°C° 0 mm 4 mps 722 mmHg 28%
    15:00 +12°C° 0 mm 4 mps 722 mmHg 29%
    16:00 +12°C° 0 mm 4 mps 722 mmHg 30%
    17:00 +12°C° 0 mm 3 mps 722 mmHg 32%
    18:00 +11°C° 0 mm 3 mps 722 mmHg 35%
    19:00 +10°C° 0 mm 3 mps 722 mmHg 38%
    20:00 +9°C° 0 mm 3 mps 722 mmHg 41%
    21:00 +8°C° 0 mm 3 mps 722 mmHg 41%
    22:00 +8°C° 0 mm 3 mps 722 mmHg 42%
    23:00 +7°C° 0 mm 2 mps 722 mmHg 42%

    27 February, Wednesday

    Time Temperature Precipitation Wind Pressure Humidity
    00:00 +7°C° 0 mm 2 mps 722 mmHg 42%
    01:00 +7°C° 0 mm 2 mps 722 mmHg 43%
    02:00 +6°C° 0 mm 2 mps 721 mmHg 43%
    03:00 +6°C° 0 mm 2 mps 721 mmHg 43%
    04:00 +6°C° 0 mm 2 mps 721 mmHg 43%
    05:00 +5°C° 0 mm 2 mps 721 mmHg 42%
    06:00 +5°C° 0 mm 2 mps 721 mmHg 42%
    07:00 +5°C° 0 mm 2 mps 720 mmHg 41%
    08:00 +5°C° 0 mm 2 mps 720 mmHg 41%
    09:00 +7°C° 0 mm 2 mps 720 mmHg 36%
    10:00 +10°C° 0 mm 1 mps 720 mmHg 31%
    11:00 +12°C° 0 mm 1 mps 720 mmHg 27%
    12:00 +12°C° 0 mm 1 mps 719 mmHg 25%
    13:00 +13°C° 0 mm 1 mps 719 mmHg 23%
    14:00 +14°C° 0 mm 1 mps 718 mmHg 21%
    15:00 +14°C° 0 mm 1 mps 718 mmHg 21%
    16:00 +14°C° 0 mm 1 mps 717 mmHg 21%
    17:00 +14°C° 0 mm 1 mps 717 mmHg 21%
    18:00 +13°C° 0 mm 2 mps 717 mmHg 24%
    19:00 +12°C° 0 mm 2 mps 717 mmHg 27%
    20:00 +9°C° 0 mm 2 mps 718 mmHg 30%
    21:00 +9°C° 0 mm 2 mps 717 mmHg 31%
    22:00 +8°C° 0 mm 3 mps 717 mmHg 32%
    23:00 +8°C° 0 mm 3 mps 717 mmHg 34%

    28 February, Thursday

    Time Temperature Precipitation Wind Pressure Humidity
    00:00 +7°C° 0 mm 3 mps 716 mmHg 32%
    01:00 +7°C° 0 mm 3 mps 716 mmHg 31%
    02:00 +7°C° 0 mm 3 mps 715 mmHg 29%
    03:00 +7°C° 0 mm 3 mps 715 mmHg 29%
    04:00 +7°C° 0 mm 3 mps 714 mmHg 28%
    05:00 +7°C° 0 mm 3 mps 713 mmHg 27%
    06:00 +7°C° 0 mm 3 mps 713 mmHg 28%
    07:00 +7°C° 0 mm 3 mps 713 mmHg 29%
    08:00 +7°C° 0 mm 2 mps 712 mmHg 29%
    09:00 +8°C° 0 mm 2 mps 712 mmHg 27%
    10:00 +10°C° 0 mm 2 mps 712 mmHg 25%
    11:00 +12°C° 0 mm 2 mps 712 mmHg 23%
    12:00 +12°C° 0 mm 2 mps 712 mmHg 24%
    13:00 +12°C° 0 mm 3 mps 712 mmHg 25%
    14:00 +12°C° 0 mm 3 mps 712 mmHg 26%
    15:00 +12°C° 0 mm 3 mps 713 mmHg 28%
    16:00 +12°C° 0 mm 2 mps 713 mmHg 31%
    17:00 +12°C° 0 mm 2 mps 714 mmHg 33%
    18:00 +10°C° 0.1 mm 2 mps 714 mmHg 41%
    19:00 +9°C° 0.1 mm 2 mps 715 mmHg 49%
    20:00 +9°C° 0.1 mm 2 mps 715 mmHg 57%
    21:00 +9°C° 0 mm 2 mps 715 mmHg 54%
    22:00 +9°C° 0 mm 2 mps 716 mmHg 51%
    23:00 +9°C° 0 mm 2 mps 716 mmHg 49%
    Show more